Donnes mto: Actuelle mercredi, 13/12/2017 10:20
Date Horaire Temp. E. Hum. E. P.atmo. Pluie Vent Direction Direction Ensoleilleme Ev.Tr. Solaire P. de rose Temp au vent Rafales
13/12/2017 10:20 4,3 C 94 % 1018,3 hPa 0,0 mm 4,6 km/h (1 Bft) SE 137 0 min 0,000 mm 21 W/m 3,4 C 3,5 C 14,5 km/h (3 Bft)
13/12/2017 10:15 4,3 C 94 % 1018,5 hPa 0,0 mm 4,0 km/h (1 Bft) S-SE 160 0 min 0,000 mm 23 W/m 3,4 C 4,3 C 11,3 km/h (2 Bft)
13/12/2017 10:10 4,2 C 93 % 1018,5 hPa 0,0 mm 6,8 km/h (2 Bft) S 172 0 min 0,000 mm 25 W/m 3,2 C 2,5 C 14,5 km/h (3 Bft)
13/12/2017 10:05 4,3 C 93 % 1018,4 hPa 0,0 mm 7,1 km/h (2 Bft) S 169 0 min 0,000 mm 30 W/m 3,3 C 2,6 C 16,1 km/h (3 Bft)
13/12/2017 10:00 4,3 C 93 % 1018,4 hPa 0,0 mm 6,2 km/h (2 Bft) SE 143 0 min 0,025 mm 28 W/m 3,3 C 2,9 C 14,5 km/h (3 Bft)
13/12/2017 09:55 4,3 C 93 % 1018,5 hPa 0,0 mm 9,0 km/h (2 Bft) S-SE 154 0 min 0,000 mm 23 W/m 3,3 C 2,1 C 16,1 km/h (3 Bft)
13/12/2017 09:50 4,3 C 93 % 1018,6 hPa 0,0 mm 9,3 km/h (2 Bft) SE 137 0 min 0,000 mm 16 W/m 3,3 C 2,0 C 14,5 km/h (3 Bft)
13/12/2017 09:45 4,2 C 93 % 1018,5 hPa 0,0 mm 8,6 km/h (2 Bft) S-SE 166 0 min 0,000 mm 25 W/m 3,2 C 2,0 C 19,3 km/h (3 Bft)
13/12/2017 09:40 4,2 C 93 % 1018,6 hPa 0,0 mm 7,6 km/h (2 Bft) S 174 0 min 0,000 mm 33 W/m 3,2 C 2,3 C 16,1 km/h (3 Bft)
13/12/2017 09:35 4,1 C 93 % 1018,6 hPa 0,0 mm 10,4 km/h (2 Bft) S-SE 148 0 min 0,000 mm 25 W/m 3,1 C 1,5 C 19,3 km/h (3 Bft)
13/12/2017 09:30 4,1 C 93 % 1018,7 hPa 0,0 mm 10,5 km/h (2 Bft) S-SE 163 0 min 0,000 mm 28 W/m 3,1 C 1,5 C 22,5 km/h (4 Bft)
13/12/2017 09:25 4,0 C 93 % 1018,6 hPa 0,0 mm 11,7 km/h (2 Bft) S 169 0 min 0,000 mm 18 W/m 3,0 C 1,1 C 19,3 km/h (3 Bft)
13/12/2017 09:20 4,0 C 93 % 1018,6 hPa 0,0 mm 10,6 km/h (2 Bft) S-SE 161 0 min 0,000 mm 16 W/m 3,0 C 1,3 C 19,3 km/h (3 Bft)
13/12/2017 09:15 4,0 C 93 % 1018,7 hPa 0,0 mm 13,0 km/h (3 Bft) SE 141 0 min 0,000 mm 11 W/m 3,0 C 0,9 C 22,5 km/h (4 Bft)
13/12/2017 09:10 3,9 C 93 % 1018,7 hPa 0,0 mm 12,5 km/h (3 Bft) SE 143 0 min 0,000 mm 7 W/m 2,9 C 0,8 C 20,9 km/h (4 Bft)
13/12/2017 09:05 3,9 C 93 % 1018,6 hPa 0,0 mm 12,7 km/h (3 Bft) S-SE 149 0 min 0,000 mm 5 W/m 2,9 C 0,8 C 22,5 km/h (4 Bft)
13/12/2017 09:00 3,9 C 93 % 1018,7 hPa 0,0 mm 12,2 km/h (2 Bft) S 170 0 min 0,000 mm 0 W/m 2,9 C 0,9 C 19,3 km/h (3 Bft)
13/12/2017 08:55 3,9 C 94 % 1018,8 hPa 0,0 mm 14,2 km/h (3 Bft) SE 141 0 min 0,000 mm 0 W/m 3,0 C 0,5 C 25,7 km/h (4 Bft)
13/12/2017 08:50 3,9 C 94 % 1018,8 hPa 0,0 mm 14,3 km/h (3 Bft) S-SE 151 0 min 0,000 mm 0 W/m 3,0 C 0,5 C 20,9 km/h (4 Bft)
13/12/2017 08:45 3,9 C 94 % 1018,7 hPa 0,0 mm 13,1 km/h (3 Bft) S-SE 161 0 min 0,000 mm 0 W/m 3,0 C 0,7 C 20,9 km/h (4 Bft)
13/12/2017 08:40 3,8 C 94 % 1018,8 hPa 0,0 mm 13,4 km/h (3 Bft) SE 146 0 min 0,000 mm 0 W/m 2,9 C 0,5 C 25,7 km/h (4 Bft)
13/12/2017 08:35 3,8 C 94 % 1018,7 hPa 0,0 mm 11,7 km/h (2 Bft) SE 142 0 min 0,000 mm 0 W/m 2,9 C 0,9 C 19,3 km/h (3 Bft)
13/12/2017 08:30 3,8 C 94 % 1018,8 hPa 0,0 mm 12,7 km/h (3 Bft) SE 129 0 min 0,000 mm 0 W/m 2,9 C 0,7 C 22,5 km/h (4 Bft)
13/12/2017 08:25 3,8 C 94 % 1018,9 hPa 0,0 mm 11,0 km/h (2 Bft) S-SE 160 0 min 0,000 mm 0 W/m 2,9 C 1,0 C 19,3 km/h (3 Bft)
13/12/2017 08:20 3,8 C 94 % 1018,9 hPa 0,0 mm 12,7 km/h (3 Bft) S-SE 158 0 min 0,000 mm 0 W/m 2,9 C 0,7 C 25,7 km/h (4 Bft)
13/12/2017 08:15 3,8 C 94 % 1018,8 hPa 0,0 mm 14,6 km/h (3 Bft) SE 145 0 min 0,000 mm 0 W/m 2,9 C 0,3 C 22,5 km/h (4 Bft)
13/12/2017 08:10 3,8 C 94 % 1018,8 hPa 0,0 mm 13,9 km/h (3 Bft) S-SE 157 0 min 0,000 mm 0 W/m 2,9 C 0,5 C 22,5 km/h (4 Bft)
13/12/2017 08:05 3,8 C 94 % 1018,9 hPa 0,0 mm 13,3 km/h (3 Bft) S-SE 147 0 min 0,000 mm 0 W/m 2,9 C 0,6 C 22,5 km/h (4 Bft)
13/12/2017 08:00 3,8 C 94 % 1018,8 hPa 0,0 mm 12,4 km/h (3 Bft) S-SE 148 0 min 0,000 mm 0 W/m 2,9 C 0,7 C 20,9 km/h (4 Bft)
13/12/2017 07:55 3,8 C 94 % 1018,9 hPa 0,0 mm 13,8 km/h (3 Bft) S-SE 160 0 min 0,000 mm 0 W/m 2,9 C 0,5 C 20,9 km/h (4 Bft)
13/12/2017 07:50 3,8 C 94 % 1019,0 hPa 0,0 mm 12,0 km/h (2 Bft) SE 146 0 min 0,000 mm 0 W/m 2,9 C 0,8 C 17,7 km/h (3 Bft)
13/12/2017 07:45 3,8 C 95 % 1019,0 hPa 0,0 mm 12,5 km/h (3 Bft) SE 141 0 min 0,000 mm 0 W/m 3,1 C 0,7 C 24,1 km/h (4 Bft)
13/12/2017 07:40 3,8 C 95 % 1019,1 hPa 0,0 mm 13,3 km/h (3 Bft) S-SE 152 0 min 0,000 mm 0 W/m 3,1 C 0,6 C 24,1 km/h (4 Bft)
13/12/2017 07:35 3,8 C 95 % 1018,9 hPa 0,0 mm 13,2 km/h (3 Bft) S 170 0 min 0,000 mm 0 W/m 3,1 C 0,6 C 22,5 km/h (4 Bft)
13/12/2017 07:30 3,8 C 95 % 1018,8 hPa 0,0 mm 13,3 km/h (3 Bft) S-SE 154 0 min 0,000 mm 0 W/m 3,1 C 0,6 C 24,1 km/h (4 Bft)
13/12/2017 07:25 3,8 C 95 % 1018,8 hPa 0,0 mm 13,8 km/h (3 Bft) S-SE 164 0 min 0,000 mm 0 W/m 3,1 C 0,5 C 22,5 km/h (4 Bft)
13/12/2017 07:20 3,8 C 95 % 1018,9 hPa 0,0 mm 14,7 km/h (3 Bft) S-SE 165 0 min 0,000 mm 0 W/m 3,1 C 0,3 C 22,5 km/h (4 Bft)
13/12/2017 07:15 3,8 C 96 % 1018,9 hPa 0,0 mm 14,5 km/h (3 Bft) S-SE 167 0 min 0,000 mm 0 W/m 3,2 C 0,4 C 22,5 km/h (4 Bft)
13/12/2017 07:10 3,7 C 96 % 1018,9 hPa 0,0 mm 13,1 km/h (3 Bft) S-SE 153 0 min 0,000 mm 0 W/m 3,1 C 0,5 C 22,5 km/h (4 Bft)
13/12/2017 07:05 3,7 C 96 % 1019,0 hPa 0,0 mm 12,6 km/h (3 Bft) SE 135 0 min 0,000 mm 0 W/m 3,1 C 0,6 C 22,5 km/h (4 Bft)
13/12/2017 07:00 3,7 C 96 % 1019,0 hPa 0,0 mm 11,9 km/h (2 Bft) SE 145 0 min 0,000 mm 0 W/m 3,1 C 0,7 C 24,1 km/h (4 Bft)
13/12/2017 06:55 3,6 C 96 % 1018,9 hPa 0,0 mm 13,7 km/h (3 Bft) S-SE 160 0 min 0,000 mm 0 W/m 3,0 C 0,2 C 20,9 km/h (4 Bft)
13/12/2017 06:50 3,6 C 96 % 1018,8 hPa 0,0 mm 13,7 km/h (3 Bft) S-SE 158 0 min 0,000 mm 0 W/m 3,0 C 0,2 C 24,1 km/h (4 Bft)
13/12/2017 06:45 3,6 C 96 % 1018,9 hPa 0,0 mm 8,8 km/h (2 Bft) SE 131 0 min 0,000 mm 0 W/m 3,0 C 1,3 C 20,9 km/h (4 Bft)
13/12/2017 06:40 3,6 C 96 % 1019,0 hPa 0,0 mm 12,2 km/h (2 Bft) S-SE 166 0 min 0,000 mm 0 W/m 3,0 C 0,5 C 24,1 km/h (4 Bft)
13/12/2017 06:35 3,6 C 96 % 1019,0 hPa 0,0 mm 10,4 km/h (2 Bft) SE 143 0 min 0,000 mm 0 W/m 3,0 C 0,9 C 20,9 km/h (4 Bft)
13/12/2017 06:30 3,6 C 96 % 1019,1 hPa 0,0 mm 5,5 km/h (1 Bft) S-SE 157 0 min 0,000 mm 0 W/m 3,0 C 2,3 C 14,5 km/h (3 Bft)
13/12/2017 06:25 3,6 C 97 % 1019,1 hPa 0,0 mm 7,6 km/h (2 Bft) SE 132 0 min 0,000 mm 0 W/m 3,2 C 1,6 C 17,7 km/h (3 Bft)
13/12/2017 06:20 3,5 C 97 % 1019,1 hPa 0,0 mm 6,3 km/h (2 Bft) S-SE 154 0 min 0,000 mm 0 W/m 3,1 C 1,9 C 14,5 km/h (3 Bft)
13/12/2017 06:15 3,5 C 96 % 1019,1 hPa 0,0 mm 6,0 km/h (2 Bft) SE 135 0 min 0,000 mm 0 W/m 2,9 C 2,0 C 17,7 km/h (3 Bft)
13/12/2017 06:10 3,4 C 96 % 1019,4 hPa 0,0 mm 7,0 km/h (2 Bft) S-SE 165 0 min 0,000 mm 0 W/m 2,8 C 1,6 C 14,5 km/h (3 Bft)
13/12/2017 06:05 3,4 C 96 % 1019,4 hPa 0,0 mm 9,0 km/h (2 Bft) S-SE 151 0 min 0,000 mm 0 W/m 2,8 C 1,0 C 14,5 km/h (3 Bft)
13/12/2017 06:00 3,4 C 96 % 1019,3 hPa 0,0 mm 7,4 km/h (2 Bft) S-SE 156 0 min 0,000 mm 0 W/m 2,8 C 1,4 C 14,5 km/h (3 Bft)
13/12/2017 05:55 3,4 C 96 % 1019,3 hPa 0,0 mm 8,0 km/h (2 Bft) SE 145 0 min 0,000 mm 0 W/m 2,8 C 1,3 C 16,1 km/h (3 Bft)
13/12/2017 05:50 3,4 C 96 % 1019,3 hPa 0,0 mm 6,0 km/h (2 Bft) SE 143 0 min 0,000 mm 0 W/m 2,8 C 1,9 C 16,1 km/h (3 Bft)
13/12/2017 05:45 3,4 C 96 % 1019,2 hPa 0,0 mm 8,2 km/h (2 Bft) S-SE 164 0 min 0,000 mm 0 W/m 2,8 C 1,2 C 16,1 km/h (3 Bft)
13/12/2017 05:40 3,5 C 97 % 1019,2 hPa 0,0 mm 11,0 km/h (2 Bft) SE 143 0 min 0,000 mm 0 W/m 3,1 C 0,6 C 20,9 km/h (4 Bft)
13/12/2017 05:35 3,6 C 97 % 1019,1 hPa 0,0 mm 10,0 km/h (2 Bft) SE 145 0 min 0,000 mm 0 W/m 3,2 C 1,0 C 20,9 km/h (4 Bft)
13/12/2017 05:30 3,6 C 97 % 1019,0 hPa 0,0 mm 10,6 km/h (2 Bft) SE 145 0 min 0,000 mm 0 W/m 3,2 C 0,9 C 19,3 km/h (3 Bft)
13/12/2017 05:25 3,6 C 97 % 1019,1 hPa 0,0 mm 10,1 km/h (2 Bft) S-SE 158 0 min 0,000 mm 0 W/m 3,2 C 1,0 C 16,1 km/h (3 Bft)
13/12/2017 05:20 3,6 C 97 % 1019,2 hPa 0,0 mm 11,4 km/h (2 Bft) S-SE 166 0 min 0,000 mm 0 W/m 3,2 C 0,7 C 17,7 km/h (3 Bft)
13/12/2017 05:15 3,6 C 97 % 1019,2 hPa 0,0 mm 9,8 km/h (2 Bft) S-SE 148 0 min 0,000 mm 0 W/m 3,2 C 1,0 C 16,1 km/h (3 Bft)
13/12/2017 05:10 3,7 C 97 % 1019,5 hPa 0,0 mm 10,7 km/h (2 Bft) S-SE 168 0 min 0,000 mm 0 W/m 3,3 C 0,9 C 17,7 km/h (3 Bft)
13/12/2017 05:05 3,7 C 97 % 1019,6 hPa 0,0 mm 10,0 km/h (2 Bft) SE 146 0 min 0,000 mm 0 W/m 3,3 C 1,1 C 20,9 km/h (4 Bft)
13/12/2017 05:00 3,7 C 97 % 1019,6 hPa 0,0 mm 11,2 km/h (2 Bft) S-SE 148 0 min 0,000 mm 0 W/m 3,3 C 0,8 C 19,3 km/h (3 Bft)
13/12/2017 04:55 3,7 C 97 % 1019,7 hPa 0,0 mm 9,8 km/h (2 Bft) S-SE 160 0 min 0,000 mm 0 W/m 3,3 C 1,2 C 17,7 km/h (3 Bft)
13/12/2017 04:50 3,8 C 97 % 1019,7 hPa 0,0 mm 11,1 km/h (2 Bft) S-SE 160 0 min 0,000 mm 0 W/m 3,4 C 1,0 C 17,7 km/h (3 Bft)
13/12/2017 04:45 3,7 C 97 % 1019,8 hPa 0,0 mm 9,4 km/h (2 Bft) S-SE 162 0 min 0,000 mm 0 W/m 3,3 C 1,2 C 20,9 km/h (4 Bft)
13/12/2017 04:40 3,7 C 97 % 1020,0 hPa 0,0 mm 9,2 km/h (2 Bft) S-SE 149 0 min 0,000 mm 0 W/m 3,3 C 1,3 C 16,1 km/h (3 Bft)
13/12/2017 04:35 3,6 C 97 % 1020,1 hPa 0,0 mm 8,8 km/h (2 Bft) S-SE 164 0 min 0,000 mm 0 W/m 3,2 C 1,3 C 14,5 km/h (3 Bft)
13/12/2017 04:30 3,5 C 97 % 1020,3 hPa 0,0 mm 5,0 km/h (1 Bft) S-SE 155 0 min 0,000 mm 0 W/m 3,1 C 2,4 C 12,9 km/h (3 Bft)
13/12/2017 04:25 3,4 C 97 % 1020,1 hPa 0,0 mm 5,4 km/h (1 Bft) S-SE 147 0 min 0,000 mm 0 W/m 3,0 C 2,1 C 14,5 km/h (3 Bft)
13/12/2017 04:20 3,2 C 97 % 1020,5 hPa 0,0 mm 4,3 km/h (1 Bft) S-SE 166 0 min 0,000 mm 0 W/m 2,8 C 3,2 C 11,3 km/h (2 Bft)
13/12/2017 04:15 2,9 C 97 % 1020,5 hPa 0,0 mm 0,5 km/h (0 Bft) S-SE 166 0 min 0,000 mm 0 W/m 2,5 C 2,9 C 6,4 km/h (2 Bft)
13/12/2017 04:10 2,9 C 97 % 1020,6 hPa 0,0 mm 0,3 km/h (0 Bft) S 173 0 min 0,000 mm 0 W/m 2,5 C 2,9 C 6,4 km/h (2 Bft)
13/12/2017 04:05 2,8 C 97 % 1020,6 hPa 0,0 mm 0,2 km/h (0 Bft) SE 125 0 min 0,000 mm 0 W/m 2,4 C 2,8 C 3,2 km/h (1 Bft)
13/12/2017 04:00 2,8 C 96 % 1020,7 hPa 0,0 mm 0,3 km/h (0 Bft) SE 127 0 min 0,000 mm 0 W/m 2,2 C 2,8 C 6,4 km/h (2 Bft)
13/12/2017 03:55 2,8 C 96 % 1020,6 hPa 0,0 mm 0,1 km/h (0 Bft) SE 141 0 min 0,000 mm 0 W/m 2,2 C 2,8 C 3,2 km/h (1 Bft)
13/12/2017 03:50 2,9 C 96 % 1020,6 hPa 0,0 mm 0,1 km/h (0 Bft) SE 141 0 min 0,000 mm 0 W/m 2,3 C 2,9 C 3,2 km/h (1 Bft)
13/12/2017 03:45 3,2 C 96 % 1020,6 hPa 0,0 mm 0,0 km/h (0 Bft) SE 133 0 min 0,000 mm 0 W/m 2,6 C 3,2 C 0,0 km/h (0 Bft)
13/12/2017 03:40 3,3 C 97 % 1020,8 hPa 0,0 mm 1,4 km/h (1 Bft) SE 137 0 min 0,000 mm 0 W/m 2,9 C 3,3 C 11,3 km/h (2 Bft)
13/12/2017 03:35 3,2 C 97 % 1020,9 hPa 0,0 mm 2,0 km/h (1 Bft) S-SE 150 0 min 0,000 mm 0 W/m 2,8 C 3,2 C 9,7 km/h (2 Bft)
13/12/2017 03:30 3,3 C 96 % 1020,8 hPa 0,0 mm 1,1 km/h (1 Bft) S-SE 159 0 min 0,000 mm 0 W/m 2,7 C 3,3 C 11,3 km/h (2 Bft)
13/12/2017 03:25 3,3 C 96 % 1020,8 hPa 0,0 mm 1,9 km/h (1 Bft) SE 135 0 min 0,000 mm 0 W/m 2,7 C 3,3 C 9,7 km/h (2 Bft)
13/12/2017 03:20 3,4 C 96 % 1020,6 hPa 0,0 mm 1,0 km/h (0 Bft) S-SE 147 0 min 0,000 mm 0 W/m 2,8 C 3,4 C 6,4 km/h (2 Bft)
13/12/2017 03:15 3,4 C 96 % 1020,8 hPa 0,0 mm 1,2 km/h (1 Bft) S-SE 147 0 min 0,000 mm 0 W/m 2,8 C 3,4 C 12,9 km/h (3 Bft)
13/12/2017 03:10 3,4 C 96 % 1020,8 hPa 0,0 mm 0,0 km/h (0 Bft) S 174 0 min 0,000 mm 0 W/m 2,8 C 3,4 C 0,0 km/h (0 Bft)
13/12/2017 03:05 3,6 C 97 % 1020,8 hPa 0,0 mm 1,1 km/h (1 Bft) S 174 0 min 0,000 mm 0 W/m 3,2 C 3,6 C 11,3 km/h (2 Bft)
13/12/2017 03:00 3,6 C 97 % 1020,7 hPa 0,0 mm 3,8 km/h (1 Bft) S-SE 148 0 min 0,000 mm 0 W/m 3,2 C 3,6 C 12,9 km/h (3 Bft)
13/12/2017 02:55 3,6 C 97 % 1020,6 hPa 0,0 mm 3,2 km/h (1 Bft) S-SE 164 0 min 0,000 mm 0 W/m 3,2 C 3,6 C 11,3 km/h (2 Bft)
13/12/2017 02:50 3,6 C 97 % 1020,5 hPa 0,0 mm 5,6 km/h (1 Bft) S-SE 148 0 min 0,000 mm 0 W/m 3,2 C 2,3 C 12,9 km/h (3 Bft)
13/12/2017 02:45 3,7 C 96 % 1020,5 hPa 0,0 mm 3,5 km/h (1 Bft) SE 141 0 min 0,000 mm 0 W/m 3,1 C 3,7 C 11,3 km/h (2 Bft)
13/12/2017 02:40 3,7 C 96 % 1020,6 hPa 0,0 mm 1,1 km/h (1 Bft) S-SE 156 0 min 0,000 mm 0 W/m 3,1 C 3,7 C 11,3 km/h (2 Bft)
13/12/2017 02:35 3,8 C 97 % 1020,6 hPa 0,0 mm 0,8 km/h (0 Bft) S-SE 167 0 min 0,000 mm 0 W/m 3,4 C 3,8 C 8,0 km/h (2 Bft)
13/12/2017 02:30 3,8 C 97 % 1020,6 hPa 0,0 mm 5,6 km/h (1 Bft) S-SE 166 0 min 0,000 mm 0 W/m 3,4 C 2,5 C 16,1 km/h (3 Bft)
13/12/2017 02:25 3,8 C 97 % 1020,5 hPa 0,0 mm 7,2 km/h (2 Bft) S-SE 152 0 min 0,000 mm 0 W/m 3,4 C 2,0 C 16,1 km/h (3 Bft)
13/12/2017 02:20 3,8 C 97 % 1020,4 hPa 0,0 mm 8,3 km/h (2 Bft) S-SE 151 0 min 0,000 mm 0 W/m 3,4 C 1,6 C 14,5 km/h (3 Bft)
13/12/2017 02:15 3,8 C 97 % 1020,4 hPa 0,0 mm 5,4 km/h (1 Bft) E-SE 122 0 min 0,000 mm 0 W/m 3,4 C 2,6 C 14,5 km/h (3 Bft)
13/12/2017 02:10 3,7 C 97 % 1020,5 hPa 0,0 mm 4,4 km/h (1 Bft) E-SE 119 0 min 0,000 mm 0 W/m 3,3 C 3,7 C 12,9 km/h (3 Bft)
13/12/2017 02:05 3,7 C 97 % 1020,4 hPa 0,0 mm 4,2 km/h (1 Bft) SE 140 0 min 0,000 mm 0 W/m 3,3 C 3,7 C 11,3 km/h (2 Bft)
13/12/2017 02:00 3,7 C 97 % 1020,5 hPa 0,0 mm 5,7 km/h (1 Bft) SE 142 0 min 0,000 mm 0 W/m 3,3 C 2,3 C 14,5 km/h (3 Bft)
13/12/2017 01:55 3,7 C 96 % 1020,5 hPa 0,0 mm 4,9 km/h (1 Bft) S 176 0 min 0,000 mm 0 W/m 3,1 C 2,6 C 12,9 km/h (3 Bft)
13/12/2017 01:50 3,7 C 97 % 1020,6 hPa 0,0 mm 7,3 km/h (2 Bft) S 170 0 min 0,000 mm 0 W/m 3,3 C 1,8 C 14,5 km/h (3 Bft)
13/12/2017 01:45 3,7 C 97 % 1020,5 hPa 0,0 mm 7,4 km/h (2 Bft) S-SE 152 0 min 0,000 mm 0 W/m 3,3 C 1,8 C 14,5 km/h (3 Bft)
13/12/2017 01:40 3,6 C 97 % 1020,6 hPa 0,0 mm 6,7 km/h (2 Bft) S-SE 147 0 min 0,000 mm 0 W/m 3,2 C 1,9 C 14,5 km/h (3 Bft)
13/12/2017 01:35 3,6 C 97 % 1020,7 hPa 0,0 mm 4,1 km/h (1 Bft) S-SE 155 0 min 0,000 mm 0 W/m 3,2 C 3,6 C 11,3 km/h (2 Bft)
13/12/2017 01:30 3,6 C 97 % 1020,8 hPa 0,0 mm 5,6 km/h (1 Bft) S-SE 159 0 min 0,000 mm 0 W/m 3,2 C 2,3 C 12,9 km/h (3 Bft)
13/12/2017 01:25 3,7 C 97 % 1020,6 hPa 0,0 mm 5,6 km/h (1 Bft) SE 146 0 min 0,000 mm 0 W/m 3,3 C 2,4 C 14,5 km/h (3 Bft)
13/12/2017 01:20 3,6 C 97 % 1020,7 hPa 0,0 mm 7,1 km/h (2 Bft) S-SE 160 0 min 0,000 mm 0 W/m 3,2 C 1,8 C 12,9 km/h (3 Bft)
13/12/2017 01:15 3,6 C 97 % 1020,8 hPa 0,0 mm 5,3 km/h (1 Bft) SE 140 0 min 0,000 mm 0 W/m 3,2 C 2,4 C 12,9 km/h (3 Bft)
13/12/2017 01:10 3,5 C 96 % 1020,8 hPa 0,0 mm 4,2 km/h (1 Bft) SE 144 0 min 0,000 mm 0 W/m 2,9 C 3,5 C 11,3 km/h (2 Bft)
13/12/2017 01:05 3,4 C 96 % 1020,9 hPa 0,0 mm 3,7 km/h (1 Bft) S-SE 155 0 min 0,000 mm 0 W/m 2,8 C 3,4 C 11,3 km/h (2 Bft)
13/12/2017 01:00 3,3 C 96 % 1021,0 hPa 0,0 mm 3,0 km/h (1 Bft) S-SE 155 0 min 0,000 mm 0 W/m 2,7 C 3,3 C 9,7 km/h (2 Bft)
13/12/2017 00:55 3,3 C 96 % 1021,0 hPa 0,0 mm 2,3 km/h (1 Bft) S-SE 155 0 min 0,000 mm 0 W/m 2,7 C 3,3 C 8,0 km/h (2 Bft)
13/12/2017 00:50 3,3 C 96 % 1021,0 hPa 0,0 mm 1,6 km/h (1 Bft) SE 141 0 min 0,000 mm 0 W/m 2,7 C 3,3 C 9,7 km/h (2 Bft)
13/12/2017 00:45 3,3 C 96 % 1021,1 hPa 0,0 mm 2,3 km/h (1 Bft) S-SE 158 0 min 0,000 mm 0 W/m 2,7 C 3,3 C 9,7 km/h (2 Bft)
13/12/2017 00:40 3,3 C 96 % 1021,0 hPa 0,0 mm 3,0 km/h (1 Bft) S-SE 150 0 min 0,000 mm 0 W/m 2,7 C 3,3 C 12,9 km/h (3 Bft)
13/12/2017 00:35 3,3 C 96 % 1021,1 hPa 0,0 mm 1,2 km/h (1 Bft) S 187 0 min 0,000 mm 0 W/m 2,7 C 3,3 C 8,0 km/h (2 Bft)
13/12/2017 00:30 3,3 C 96 % 1021,2 hPa 0,0 mm 2,6 km/h (1 Bft) S-SE 147 0 min 0,000 mm 0 W/m 2,7 C 3,3 C 9,7 km/h (2 Bft)
13/12/2017 00:25 3,3 C 97 % 1021,2 hPa 0,0 mm 2,6 km/h (1 Bft) S-SE 161 0 min 0,000 mm 0 W/m 2,9 C 3,3 C 9,7 km/h (2 Bft)
13/12/2017 00:20 3,1 C 96 % 1021,2 hPa 0,0 mm 2,8 km/h (1 Bft) SE 132 0 min 0,000 mm 0 W/m 2,5 C 3,1 C 9,7 km/h (2 Bft)
13/12/2017 00:15 3,1 C 96 % 1020,9 hPa 0,0 mm 0,7 km/h (0 Bft) S-SE 150 0 min 0,000 mm 0 W/m 2,5 C 3,1 C 8,0 km/h (2 Bft)
13/12/2017 00:10 3,1 C 96 % 1020,9 hPa 0,0 mm 0,9 km/h (0 Bft) S-SE 151 0 min 0,000 mm 0 W/m 2,5 C 3,1 C 8,0 km/h (2 Bft)
13/12/2017 00:05 3,0 C 96 % 1020,9 hPa 0,0 mm 0,9 km/h (0 Bft) SE 129 0 min 0,000 mm 0 W/m 2,4 C 3,0 C 8,0 km/h (2 Bft)
13/12/2017 00:00 3,1 C 96 % 1021,0 hPa 0,0 mm 0,0 km/h (0 Bft) E-SE 122 0 min 0,000 mm 0 W/m 2,5 C 3,1 C 0,0 km/h (0 Bft)
_ Min-Heure 03:55 09:00 10:20 - 00:00 - - - - - 03:55 06:50 00:00
Minimum _ 2,8 C 93 % 1018,3 hPa - 0,0 km/h (0 Bft) - - - - - 2,2 C 0,2 C 0,0 km/h (0 Bft)
_ Max-Heure 09:50 00:25 00:20 00:00 07:20 - - 00:00 10:00 09:40 10:15 10:15 08:20
Maximum _ 4,3 C 97 % 1021,2 hPa 0,0 mm 14,7 km/h
S-SE (3 Bft)
- - 0 min 0,025 mm 33 W/m 3,4 C 4,3 C 25,7 km/h
S-SE (4 Bft)
Moyenne _ 3,6 C 96 % 1019,7 hPa #0,0 mm 7,3 km/h (2 Bft) S-SE - #0 min. #0,025 mm 21 W/m 3,0 C 1,9 C 15,4 km/h (3 Bft)